Location: *
(38.4303°S, 157.0822°W)
Time: 21:40:54
(UTC+00:00)

DMSP B5D2-2 - Pass Details

Date: 06 August 2024
Orbit: 787 x 802 km, 98.3° (Epoch: 16 September)

Event Time Altitude Azimuth Distance (km) Brightness Sun altitude
Rises 14:38:59 0° 162° (SSE) 3,348 7.6 -32.5°
Reaches altitude 10° 14:41:25 10° 157° (SSE) 2,408 6.8 -32.1°
Maximum altitude 14:46:37 52° 80° (E) 994 4.8 -31.1°
Enters shadow 14:48:53 31° 20° (NNE) 1,377 5.4 -30.6°
